QPF
0.02 0.04 0.09 0.13 0.12 0.09 0.08 0.05 0.02 0.01 0.02 0.03 0.03 0.03 0.03 0.02 0.03 0.06 0.09 0.07 0.05 0.03 0.03 0.04 0.05 0.05 0.05 0.04 0.04 0.08 0.10 0.09 0.08 0.07 0.06 0.08 0.08 0.09 0.09 0.11 0.13 0.13 0.11 0.13 0.11 0.08 0.09 0.09 0.09
0.04 0.13 0.16 0.12 0.08 0.03 0.04 0.03 0.02 0.02 0.03 0.03 0.03 0.02 0.01 0.01 0.02 0.06 0.09 0.06 0.03 0.01 0.02 0.03 0.03 0.03 0.03 0.03 0.04 0.07 0.10 0.10 0.09 0.08 0.08 0.09 0.10 0.10 0.12 0.13 0.10 0.09 0.09 0.09 0.08 0.07 0.09 0.08 0.07
0.10 0.18 0.13 0.09 0.04 0.02 0.03 0.03 0.02 0.03 0.03 0.03 0.02 0.02 0.02 0.02 0.02 0.04 0.05 0.04 0.02 0.02 0.03 0.02 0.02 0.02 0.03 0.03 0.04 0.08 0.11 0.11 0.10 0.10 0.08 0.08 0.10 0.11 0.11 0.10 0.08 0.08 0.09 0.10 0.09 0.08 0.07 0.06 0.05
0.14 0.19 0.10 0.06 0.01 0.01 0.02 0.02 0.02 0.03 0.03 0.02 0.02 0.02 0.03 0.03 0.04 0.04 0.03 0.03 0.02 0.02 0.02 0.01 0.01 0.01 0.03 0.04 0.05 0.09 0.12 0.12 0.11 0.12 0.08 0.06 0.05 0.08 0.09 0.09 0.08 0.09 0.10 0.10 0.09 0.07 0.05 0.04 0.04
0.08 0.12 0.09 0.03 0.01 0.01 0.01 0.01 0.01 0.02 0.02 0.02 0.01 0.02 0.04 0.03 0.03 0.04 0.03 0.02 0.02 0.01 0.01 0.02 0.01 0.01 0.02 0.03 0.03 0.03 0.08 0.11 0.09 0.10 0.09 0.07 0.06 0.06 0.06 0.08 0.07 0.08 0.08 0.06 0.05 0.04 0.03 0.03 0.03
0.06 0.08 0.05 0.01 0.01 0.00 0.01 0.01 0.02 0.01 0.01 0.00 0.00 0.01 0.04 0.03 0.03 0.04 0.03 0.02 0.02 0.01 0.01 0.01 0.02 0.02 0.02 0.02 0.02 0.02 0.04 0.06 0.05 0.07 0.08 0.07 0.07 0.07 0.06 0.07 0.05 0.06 0.05 0.04 0.04 0.04 0.03 0.02 0.02
0.05 0.05 0.02 0.00 0.00 0.00 0.00 0.01 0.01 0.00 0.00 0.00 0.00 0.01 0.03 0.03 0.03 0.03 0.03 0.02 0.01 0.01 0.01 0.01 0.02 0.02 0.03 0.02 0.02 0.02 0.02 0.02 0.03 0.05 0.08 0.07 0.07 0.08 0.08 0.05 0.04 0.04 0.04 0.03 0.03 0.04 0.04 0.03 0.02
0.02 0.02 0.01 0.01 0.00 0.00 0.00 0.00 0.01 0.01 0.00 0.00 0.00 0.00 0.02 0.02 0.02 0.02 0.02 0.03 0.02 0.01 0.01 0.01 0.01 0.01 0.02 0.02 0.04 0.04 0.02 0.02 0.02 0.03 0.05 0.06 0.08 0.09 0.08 0.05 0.04 0.04 0.03 0.02 0.04 0.06 0.02 0.01 0.02
0.01 0.02 0.01 0.01 0.00 0.00 0.00 0.00 0.00 0.00 0.00 0.00 0.00 0.00 0.00 0.01 0.01 0.01 0.01 0.03 0.03 0.02 0.03 0.02 0.02 0.02 0.03 0.03 0.04 0.05 0.04 0.03 0.04 0.04 0.05 0.07 0.07 0.07 0.06 0.04 0.05 0.04 0.03 0.03 0.04 0.05 0.01 0.01 0.01
0.01 0.00 0.00 0.00 0.00 0.00 0.00 0.00 0.00 0.00 0.00 0.00 0.00 0.00 0.00 0.01 0.01 0.01 0.01 0.02 0.03 0.04 0.04 0.03 0.05 0.07 0.06 0.04 0.04 0.04 0.03 0.03 0.03 0.04 0.05 0.05 0.06 0.06 0.04 0.05 0.06 0.05 0.05 0.05 0.06 0.05 0.03 0.02 0.01
0.00 0.00 0.00 0.00 0.00 0.00 0.00 0.00 0.00 0.00 0.00 0.00 0.00 0.00 0.00 0.00 0.01 0.01 0.01 0.01 0.02 0.04 0.05 0.04 0.08 0.10 0.08 0.06 0.05 0.04 0.03 0.03 0.03 0.03 0.02 0.04 0.06 0.06 0.06 0.06 0.07 0.07 0.07 0.08 0.08 0.05 0.02 0.03 0.03
0.00 0.00 0.00 0.00 0.00 0.00 0.00 0.00 0.00 0.00 0.00 0.00 0.00 0.00 0.00 0.00 0.00 0.01 0.01 0.02 0.03 0.04 0.04 0.04 0.07 0.11 0.08 0.06 0.05 0.05 0.06 0.06 0.04 0.03 0.03 0.04 0.04 0.05 0.05 0.05 0.06 0.07 0.07 0.07 0.05 0.02 0.02 0.04 0.05
0.00 0.00 0.00 0.00 0.00 0.00 0.00 0.00 0.00 0.00 0.00 0.00 0.00 0.00 0.00 0.00 0.00 0.01 0.01 0.01 0.03 0.06 0.09 0.09 0.10 0.08 0.06 0.04 0.05 0.05 0.05 0.04 0.03 0.03 0.03 0.04 0.04 0.04 0.05 0.06 0.07 0.08 0.05 0.04 0.03 0.03 0.03 0.04 0.03
0.00 0.00 0.00 0.00 0.00 0.00 0.00 0.00 0.00 0.00 0.00 0.00 0.00 0.00 0.00 0.00 0.00 0.00 0.01 0.02 0.02 0.06 0.09 0.13 0.13 0.09 0.06 0.04 0.05 0.04 0.04 0.04 0.03 0.03 0.04 0.04 0.03 0.05 0.05 0.05 0.07 0.05 0.03 0.04 0.03 0.02 0.02 0.03 0.03
0.00 0.00 0.01 0.00 0.00 0.00 0.00 0.00 0.00 0.00 0.00 0.00 0.00 0.00 0.00 0.00 0.00 0.00 0.01 0.01 0.02 0.04 0.07 0.08 0.08 0.08 0.07 0.05 0.04 0.05 0.05 0.04 0.03 0.04 0.04 0.06 0.06 0.06 0.05 0.05 0.06 0.03 0.03 0.05 0.04 0.03 0.02 0.03 0.04
0.01 0.00 0.01 0.01 0.00 0.00 0.00 0.00 0.00 0.00 0.00 0.00 0.00 0.00 0.00 0.00 0.00 0.00 0.00 0.01 0.02 0.03 0.04 0.04 0.04 0.05 0.05 0.04 0.05 0.06 0.05 0.04 0.04 0.05 0.05 0.07 0.06 0.05 0.04 0.05 0.05 0.04 0.03 0.02 0.03 0.03 0.04 0.04 0.04
0.02 0.01 0.01 0.01 0.01 0.01 0.00 0.00 0.00 0.00 0.00 0.00 0.00 0.00 0.00 0.00 0.00 0.00 0.00 0.00 0.01 0.01 0.02 0.02 0.02 0.03 0.03 0.04 0.05 0.05 0.04 0.03 0.04 0.03 0.04 0.05 0.05 0.04 0.04 0.05 0.04 0.03 0.03 0.02 0.03 0.03 0.05 0.05 0.05
0.05 0.03 0.02 0.01 0.01 0.01 0.01 0.00 0.00 0.00 0.00 0.00 0.00 0.00 0.00 0.00 0.00 0.00 0.00 0.00 0.00 0.01 0.01 0.01 0.02 0.02 0.02 0.02 0.03 0.03 0.02 0.02 0.01 0.02 0.02 0.03 0.03 0.03 0.03 0.04 0.04 0.03 0.04 0.04 0.03 0.02 0.03 0.04 0.04
0.03 0.04 0.03 0.02 0.01 0.01 0.01 0.01 0.01 0.00 0.00 0.00 0.00 0.00 0.00 0.00 0.00 0.00 0.00 0.00 0.00 0.00 0.00 0.01 0.01 0.01 0.00 0.01 0.01 0.01 0.01 0.01 0.01 0.01 0.03 0.03 0.03 0.04 0.04 0.04 0.03 0.02 0.03 0.02 0.02 0.02 0.02 0.01 0.03
0.01 0.02 0.02 0.01 0.01 0.01 0.02 0.03 0.02 0.01 0.01 0.01 0.01 0.02 0.01 0.00 0.00 0.00 0.00 0.00 0.00 0.00 0.00 0.00 0.00 0.00 0.00 0.00 0.00 0.00 0.00 0.00 0.02 0.02 0.05 0.05 0.04 0.05 0.04 0.04 0.03 0.02 0.02 0.02 0.02 0.03 0.02 0.02 0.03
0.01 0.01 0.01 0.01 0.02 0.01 0.02 0.03 0.03 0.01 0.01 0.01 0.01 0.01 0.01 0.00 0.00 0.00 0.00 0.00 0.00 0.00 0.00 0.00 0.00 0.01 0.01 0.00 0.00 0.00 0.00 0.00 0.01 0.03 0.05 0.05 0.05 0.05 0.04 0.03 0.03 0.02 0.02 0.02 0.02 0.02 0.01 0.02 0.03
0.00 0.00 0.00 0.01 0.02 0.03 0.03 0.04 0.03 0.03 0.01 0.02 0.01 0.00 0.00 0.00 0.00 0.00 0.00 0.00 0.00 0.00 0.00 0.00 0.01 0.03 0.03 0.02 0.01 0.00 0.00 0.00 0.01 0.02 0.04 0.04 0.05 0.05 0.05 0.03 0.03 0.02 0.02 0.02 0.02 0.02 0.01 0.01 0.02
0.00 0.00 0.00 0.00 0.01 0.04 0.03 0.03 0.05 0.04 0.03 0.03 0.01 0.01 0.01 0.00 0.00 0.00 0.00 0.00 0.00 0.00 0.00 0.01 0.03 0.04 0.04 0.03 0.01 0.01 0.01 0.01 0.01 0.01 0.02 0.03 0.04 0.05 0.05 0.04 0.04 0.03 0.03 0.03 0.02 0.03 0.02 0.01 0.01
0.01 0.01 0.01 0.01 0.00 0.01 0.02 0.02 0.03 0.02 0.01 0.02 0.02 0.02 0.01 0.01 0.00 0.00 0.00 0.00 0.00 0.00 0.01 0.02 0.05 0.06 0.05 0.03 0.02 0.01 0.01 0.01 0.01 0.01 0.01 0.02 0.03 0.04 0.04 0.04 0.04 0.04 0.03 0.03 0.03 0.03 0.02 0.02 0.01
0.01 0.01 0.01 0.02 0.02 0.03 0.03 0.02 0.02 0.03 0.03 0.06 0.03 0.02 0.01 0.01 0.00 0.01 0.00 0.00 0.00 0.01 0.02 0.06 0.07 0.06 0.04 0.03 0.02 0.01 0.01 0.02 0.01 0.01 0.01 0.01 0.02 0.02 0.02 0.02 0.03 0.04 0.03 0.02 0.03 0.04 0.03 0.03 0.03
0.00 0.01 0.01 0.03 0.04 0.05 0.03 0.02 0.02 0.04 0.04 0.04 0.03 0.03 0.02 0.02 0.01 0.00 0.00 0.01 0.01 0.00 0.01 0.03 0.05 0.07 0.07 0.05 0.02 0.02 0.02 0.01 0.01 0.01 0.01 0.01 0.02 0.02 0.01 0.02 0.03 0.03 0.02 0.02 0.03 0.03 0.02 0.02 0.03
0.00 0.00 0.01 0.01 0.03 0.03 0.02 0.02 0.03 0.06 0.06 0.03 0.03 0.03 0.03 0.01 0.01 0.01 0.01 0.02 0.01 0.01 0.02 0.04 0.06 0.05 0.05 0.05 0.02 0.02 0.02 0.01 0.01 0.01 0.01 0.01 0.02 0.03 0.03 0.03 0.03 0.03 0.03 0.03 0.02 0.02 0.02 0.03 0.03
0.00 0.00 0.01 0.02 0.03 0.02 0.02 0.03 0.04 0.05 0.03 0.02 0.04 0.03 0.02 0.02 0.02 0.03 0.04 0.05 0.04 0.02 0.02 0.03 0.02 0.02 0.04 0.05 0.03 0.01 0.02 0.01 0.01 0.01 0.01 0.01 0.03 0.05 0.05 0.05 0.04 0.04 0.03 0.02 0.02 0.02 0.02 0.05 0.05
0.00 0.00 0.01 0.01 0.03 0.02 0.02 0.03 0.02 0.02 0.02 0.02 0.02 0.02 0.02 0.03 0.03 0.04 0.04 0.07 0.04 0.04 0.03 0.01 0.01 0.01 0.01 0.01 0.01 0.01 0.02 0.03 0.02 0.02 0.02 0.02 0.03 0.04 0.04 0.04 0.03 0.03 0.02 0.01 0.02 0.02 0.03 0.04 0.04
0.00 0.00 0.00 0.01 0.02 0.01 0.01 0.01 0.01 0.02 0.03 0.05 0.04 0.02 0.02 0.04 0.04 0.04 0.04 0.05 0.06 0.09 0.08 0.03 0.02 0.01 0.01 0.00 0.01 0.01 0.02 0.03 0.03 0.03 0.03 0.02 0.03 0.03 0.04 0.04 0.03 0.02 0.02 0.02 0.02 0.03 0.03 0.03 0.03
MSLP
1007.11 1008.16 1009.48 1010.89 1012.19 1013.24 1013.91 1014.20 1014.18 1013.98 1013.76 1013.67 1013.77 1014.09 1014.55 1015.03 1015.41 1015.56 1015.45 1015.07 1014.51 1013.87 1013.26 1012.78 1012.47 1012.33 1012.30 1012.30 1012.26 1012.15 1011.96 1011.70 1011.43 1011.21 1011.08 1011.05 1011.11 1011.22 1011.36 1011.47 1011.55 1011.61 1011.66 1011.74 1011.87 1012.06 1012.32 1012.61 1012.92
1007.72 1009.00 1010.45 1011.88 1013.09 1013.95 1014.38 1014.40 1014.13 1013.71 1013.33 1013.13 1013.18 1013.47 1013.93 1014.43 1014.85 1015.05 1014.99 1014.68 1014.19 1013.63 1013.11 1012.70 1012.46 1012.38 1012.40 1012.46 1012.49 1012.46 1012.35 1012.18 1012.00 1011.85 1011.76 1011.74 1011.79 1011.88 1011.97 1012.05 1012.12 1012.17 1012.23 1012.33 1012.48 1012.67 1012.91 1013.17 1013.43
1008.48 1009.94 1011.46 1012.84 1013.92 1014.56 1014.74 1014.52 1014.03 1013.44 1012.94 1012.66 1012.66 1012.94 1013.39 1013.90 1014.33 1014.55 1014.54 1014.29 1013.88 1013.41 1012.98 1012.66 1012.49 1012.48 1012.56 1012.68 1012.78 1012.82 1012.80 1012.71 1012.61 1012.51 1012.45 1012.42 1012.44 1012.48 1012.52 1012.55 1012.59 1012.63 1012.71 1012.84 1013.01 1013.23 1013.46 1013.70 1013.91
1009.29 1010.86 1012.38 1013.67 1014.57 1015.00 1014.97 1014.55 1013.90 1013.21 1012.65 1012.34 1012.33 1012.60 1013.04 1013.54 1013.95 1014.19 1014.20 1014.00 1013.67 1013.29 1012.95 1012.72 1012.63 1012.68 1012.81 1012.98 1013.13 1013.23 1013.26 1013.24 1013.19 1013.13 1013.08 1013.05 1013.02 1013.01 1012.99 1012.98 1012.99 1013.03 1013.13 1013.29 1013.49 1013.73 1013.96 1014.18 1014.35
1010.05 1011.63 1013.08 1014.22 1014.95 1015.19 1015.00 1014.47 1013.75 1013.05 1012.50 1012.22 1012.24 1012.50 1012.93 1013.39 1013.78 1014.00 1014.02 1013.87 1013.61 1013.32 1013.08 1012.93 1012.91 1013.00 1013.16 1013.34 1013.50 1013.62 1013.69 1013.71 1013.70 1013.67 1013.63 1013.58 1013.53 1013.47 1013.41 1013.36 1013.35 1013.39 1013.51 1013.69 1013.92 1014.16 1014.40 1014.59 1014.73
1010.65 1012.16 1013.46 1014.43 1014.97 1015.07 1014.79 1014.23 1013.56 1012.93 1012.48 1012.28 1012.35 1012.64 1013.04 1013.47 1013.81 1014.00 1014.02 1013.91 1013.72 1013.51 1013.36 1013.29 1013.32 1013.42 1013.57 1013.73 1013.87 1013.97 1014.04 1014.07 1014.08 1014.07 1014.05 1014.02 1013.96 1013.88 1013.80 1013.73 1013.71 1013.75 1013.87 1014.05 1014.29 1014.53 1014.75 1014.92 1015.02
1011.03 1012.38 1013.48 1014.26 1014.64 1014.64 1014.34 1013.84 1013.28 1012.81 1012.51 1012.45 1012.60 1012.92 1013.31 1013.69 1013.97 1014.13 1014.15 1014.07 1013.95 1013.82 1013.74 1013.73 1013.78 1013.88 1013.99 1014.10 1014.18 1014.23 1014.26 1014.29 1014.32 1014.34 1014.36 1014.36 1014.33 1014.27 1014.19 1014.12 1014.09 1014.11 1014.22 1014.39 1014.60 1014.82 1015.01 1015.14 1015.21
1011.20 1012.33 1013.21 1013.79 1014.03 1013.98 1013.70 1013.32 1012.94 1012.66 1012.56 1012.64 1012.89 1013.24 1013.61 1013.95 1014.19 1014.31 1014.33 1014.29 1014.22 1014.16 1014.15 1014.18 1014.24 1014.30 1014.36 1014.39 1014.39 1014.37 1014.37 1014.38 1014.43 1014.50 1014.57 1014.63 1014.66 1014.64 1014.59 1014.52 1014.48 1014.49 1014.55 1014.68 1014.84 1015.02 1015.16 1015.24 1015.27
1011.21 1012.12 1012.78 1013.17 1013.30 1013.22 1013.01 1012.76 1012.57 1012.49 1012.57 1012.79 1013.12 1013.50 1013.87 1014.16 1014.36 1014.46 1014.49 1014.47 1014.46 1014.46 1014.49 1014.55 1014.60 1014.63 1014.62 1014.56 1014.49 1014.41 1014.37 1014.38 1014.45 1014.58 1014.72 1014.86 1014.95 1014.99 1014.98 1014.93 1014.88 1014.85 1014.86 1014.92 1015.02 1015.12 1015.20 1015.24 1015.24
1011.18 1011.88 1012.35 1012.60 1012.64 1012.56 1012.41 1012.29 1012.25 1012.34 1012.56 1012.89 1013.28 1013.67 1014.01 1014.27 1014.44 1014.53 1014.56 1014.58 1014.60 1014.65 1014.72 1014.79 1014.82 1014.81 1014.74 1014.62 1014.48 1014.36 1014.29 1014.31 1014.42 1014.60 1014.82 1015.03 1015.21 1015.31 1015.34 1015.30 1015.23 1015.16 1015.12 1015.10 1015.11 1015.14 1015.16 1015.16 1015.13
1011.24 1011.79 1012.12 1012.26 1012.25 1012.16 1012.07 1012.03 1012.10 1012.28 1012.58 1012.95 1013.35 1013.72 1014.04 1014.27 1014.42 1014.50 1014.55 1014.59 1014.64 1014.72 1014.80 1014.87 1014.88 1014.84 1014.72 1014.56 1014.39 1014.25 1014.18 1014.22 1014.36 1014.59 1014.87 1015.15 1015.38 1015.54 1015.60 1015.58 1015.50 1015.39 1015.28 1015.19 1015.13 1015.08 1015.05 1015.02 1014.98
1011.47 1011.94 1012.20 1012.28 1012.25 1012.16 1012.09 1012.09 1012.18 1012.38 1012.67 1013.01 1013.37 1013.71 1013.98 1014.18 1014.32 1014.40 1014.46 1014.52 1014.59 1014.67 1014.75 1014.80 1014.80 1014.73 1014.60 1014.43 1014.25 1014.12 1014.06 1014.12 1014.29 1014.54 1014.86 1015.17 1015.44 1015.63 1015.71 1015.70 1015.61 1015.48 1015.32 1015.18 1015.06 1014.97 1014.90 1014.84 1014.81
1011.91 1012.37 1012.62 1012.70 1012.67 1012.59 1012.51 1012.48 1012.53 1012.66 1012.87 1013.13 1013.40 1013.66 1013.89 1014.07 1014.19 1014.29 1014.36 1014.42 1014.49 1014.55 1014.61 1014.63 1014.60 1014.52 1014.40 1014.24 1014.09 1013.99 1013.96 1014.03 1014.20 1014.46 1014.76 1015.07 1015.34 1015.53 1015.63 1015.63 1015.54 1015.40 1015.23 1015.06 1014.92 1014.80 1014.72 1014.66 1014.64
1012.52 1013.02 1013.31 1013.44 1013.44 1013.37 1013.26 1013.17 1013.12 1013.12 1013.19 1013.30 1013.46 1013.63 1013.80 1013.96 1014.09 1014.19 1014.28 1014.34 1014.38 1014.41 1014.42 1014.40 1014.35 1014.27 1014.17 1014.05 1013.95 1013.88 1013.88 1013.95 1014.10 1014.32 1014.57 1014.83 1015.06 1015.23 1015.33 1015.34 1015.27 1015.16 1015.01 1014.86 1014.72 1014.60 1014.53 1014.49 1014.48
1013.18 1013.74 1014.12 1014.32 1014.38 1014.33 1014.20 1014.03 1013.85 1013.69 1013.57 1013.52 1013.54 1013.61 1013.73 1013.88 1014.02 1014.15 1014.24 1014.29 1014.30 1014.28 1014.23 1014.17 1014.09 1014.02 1013.95 1013.88 1013.84 1013.82 1013.84 1013.89 1013.99 1014.13 1014.30 1014.47 1014.63 1014.76 1014.85 1014.88 1014.86 1014.80 1014.71 1014.60 1014.50 1014.41 1014.36 1014.34 1014.35
1013.73 1014.37 1014.84 1015.14 1015.29 1015.29 1015.15 1014.91 1014.60 1014.27 1013.97 1013.74 1013.62 1013.60 1013.68 1013.82 1013.98 1014.13 1014.24 1014.28 1014.26 1014.18 1014.08 1013.96 1013.87 1013.80 1013.77 1013.76 1013.78 1013.81 1013.84 1013.87 1013.90 1013.93 1013.98 1014.04 1014.12 1014.20 1014.28 1014.34 1014.38 1014.39 1014.38 1014.34 1014.30 1014.25 1014.22 1014.22 1014.24
1014.04 1014.74 1015.31 1015.74 1016.00 1016.08 1015.97 1015.69 1015.27 1014.79 1014.32 1013.93 1013.67 1013.56 1013.60 1013.74 1013.93 1014.12 1014.25 1014.29 1014.24 1014.12 1013.97 1013.81 1013.70 1013.64 1013.65 1013.70 1013.78 1013.85 1013.88 1013.88 1013.83 1013.76 1013.69 1013.63 1013.61 1013.64 1013.71 1013.81 1013.92 1014.02 1014.09 1014.13 1014.15 1014.15 1014.14 1014.14 1014.16
1014.02 1014.75 1015.42 1016.00 1016.42 1016.62 1016.58 1016.30 1015.83 1015.23 1014.61 1014.07 1013.68 1013.49 1013.48 1013.62 1013.85 1014.07 1014.23 1014.29 1014.23 1014.09 1013.90 1013.72 1013.60 1013.56 1013.60 1013.71 1013.84 1013.94 1013.99 1013.95 1013.83 1013.66 1013.47 1013.30 1013.20 1013.18 1013.24 1013.38 1013.55 1013.73 1013.89 1014.01 1014.08 1014.10 1014.11 1014.11 1014.11
1013.63 1014.39 1015.19 1015.93 1016.54 1016.92 1017.01 1016.78 1016.29 1015.61 1014.87 1014.20 1013.68 1013.39 1013.33 1013.46 1013.71 1013.97 1014.17 1014.26 1014.22 1014.08 1013.88 1013.69 1013.57 1013.55 1013.62 1013.77 1013.95 1014.08 1014.13 1014.07 1013.89 1013.64 1013.36 1013.11 1012.94 1012.88 1012.94 1013.11 1013.33 1013.58 1013.80 1013.97 1014.07 1014.11 1014.12 1014.10 1014.09
1012.94 1013.74 1014.68 1015.63 1016.47 1017.06 1017.32 1017.20 1016.73 1016.01 1015.17 1014.36 1013.72 1013.32 1013.18 1013.28 1013.53 1013.83 1014.08 1014.21 1014.20 1014.08 1013.90 1013.71 1013.60 1013.59 1013.70 1013.88 1014.08 1014.24 1014.30 1014.22 1014.01 1013.71 1013.37 1013.06 1012.85 1012.76 1012.81 1012.99 1013.24 1013.53 1013.78 1013.98 1014.09 1014.14 1014.13 1014.10 1014.08
1012.05 1012.93 1014.03 1015.22 1016.32 1017.17 1017.64 1017.66 1017.25 1016.50 1015.57 1014.64 1013.86 1013.33 1013.10 1013.14 1013.37 1013.68 1013.97 1014.15 1014.20 1014.12 1013.96 1013.79 1013.69 1013.69 1013.80 1014.00 1014.21 1014.38 1014.45 1014.37 1014.15 1013.83 1013.46 1013.13 1012.88 1012.77 1012.81 1012.99 1013.24 1013.53 1013.78 1013.98 1014.09 1014.12 1014.10 1014.06 1014.04
1011.10 1012.09 1013.39 1014.84 1016.23 1017.35 1018.04 1018.22 1017.89 1017.13 1016.13 1015.08 1014.15 1013.48 1013.13 1013.08 1013.27 1013.58 1013.90 1014.13 1014.23 1014.20 1014.08 1013.94 1013.84 1013.83 1013.93 1014.11 1014.31 1014.48 1014.54 1014.47 1014.26 1013.95 1013.58 1013.24 1012.99 1012.86 1012.88 1013.02 1013.25 1013.51 1013.74 1013.90 1013.99 1014.01 1013.98 1013.95 1013.94
1010.22 1011.35 1012.87 1014.57 1016.24 1017.63 1018.55 1018.89 1018.64 1017.90 1016.84 1015.67 1014.61 1013.79 1013.31 1013.16 1013.30 1013.59 1013.92 1014.20 1014.35 1014.36 1014.28 1014.14 1014.04 1014.00 1014.06 1014.20 1014.37 1014.51 1014.57 1014.51 1014.31 1014.02 1013.67 1013.34 1013.08 1012.94 1012.93 1013.03 1013.21 1013.41 1013.59 1013.72 1013.78 1013.78 1013.75 1013.73 1013.76
1009.48 1010.77 1012.49 1014.44 1016.35 1017.96 1019.08 1019.57 1019.41 1018.69 1017.59 1016.35 1015.17 1014.24 1013.64 1013.39 1013.46 1013.73 1014.07 1014.37 1014.56 1014.62 1014.55 1014.42 1014.29 1014.20 1014.20 1014.27 1014.38 1014.49 1014.52 1014.46 1014.29 1014.03 1013.71 1013.40 1013.15 1012.98 1012.93 1012.98 1013.09 1013.23 1013.35 1013.43 1013.46 1013.45 1013.44 1013.44 1013.50
1008.94 1010.37 1012.26 1014.38 1016.47 1018.25 1019.51 1020.12 1020.05 1019.36 1018.28 1017.00 1015.76 1014.75 1014.07 1013.75 1013.77 1014.01 1014.35 1014.67 1014.88 1014.96 1014.90 1014.76 1014.59 1014.44 1014.36 1014.36 1014.39 1014.44 1014.45 1014.39 1014.23 1014.00 1013.72 1013.43 1013.18 1013.00 1012.90 1012.89 1012.93 1013.00 1013.06 1013.10 1013.10 1013.09 1013.09 1013.12 1013.21
1008.61 1010.14 1012.12 1014.33 1016.50 1018.37 1019.71 1020.40 1020.40 1019.79 1018.75 1017.50 1016.27 1015.24 1014.54 1014.20 1014.18 1014.41 1014.74 1015.06 1015.29 1015.38 1015.32 1015.16 1014.94 1014.73 1014.57 1014.48 1014.44 1014.43 1014.40 1014.33 1014.19 1013.99 1013.74 1013.47 1013.23 1013.03 1012.89 1012.82 1012.79 1012.80 1012.80 1012.80 1012.79 1012.78 1012.79 1012.84 1012.94
1008.49 1010.06 1012.05 1014.24 1016.38 1018.23 1019.58 1020.30 1020.37 1019.84 1018.91 1017.76 1016.62 1015.65 1014.99 1014.67 1014.66 1014.88 1015.21 1015.53 1015.76 1015.84 1015.78 1015.59 1015.34 1015.07 1014.84 1014.68 1014.57 1014.51 1014.45 1014.38 1014.25 1014.07 1013.85 1013.60 1013.36 1013.14 1012.97 1012.85 1012.77 1012.72 1012.68 1012.65 1012.63 1012.61 1012.62 1012.67 1012.76
1008.60 1010.13 1012.02 1014.08 1016.09 1017.82 1019.10 1019.81 1019.93 1019.52 1018.73 1017.75 1016.76 1015.94 1015.38 1015.12 1015.15 1015.38 1015.71 1016.02 1016.24 1016.31 1016.24 1016.04 1015.76 1015.46 1015.19 1014.97 1014.82 1014.72 1014.65 1014.57 1014.45 1014.30 1014.10 1013.87 1013.63 1013.40 1013.20 1013.04 1012.91 1012.82 1012.75 1012.70 1012.66 1012.64 1012.64 1012.66 1012.72
1008.96 1010.38 1012.09 1013.92 1015.69 1017.22 1018.36 1019.02 1019.18 1018.88 1018.28 1017.51 1016.74 1016.10 1015.69 1015.54 1015.62 1015.87 1016.18 1016.48 1016.68 1016.74 1016.66 1016.46 1016.17 1015.87 1015.59 1015.36 1015.20 1015.09 1015.01 1014.93 1014.82 1014.68 1014.50 1014.28 1014.04 1013.80 1013.58 1013.39 1013.24 1013.12 1013.02 1012.95 1012.90 1012.86 1012.84 1012.82 1012.81
1009.59 1010.86 1012.32 1013.85 1015.31 1016.58 1017.53 1018.09 1018.27 1018.10 1017.69 1017.15 1016.62 1016.20 1015.96 1015.92 1016.05 1016.31 1016.61 1016.87 1017.04 1017.09 1017.00 1016.81 1016.55 1016.28 1016.02 1015.81 1015.66 1015.56 1015.48 1015.41 1015.31 1015.18 1015.00 1014.79 1014.54 1014.30 1014.06 1013.85 1013.67 1013.53 1013.42 1013.34 1013.27 1013.21 1013.15 1013.09 1013.01
Thickness
5827 5823 5819 5805 5781 5760 5757 5770 5780 5780 5780 5786 5789 5782 5772 5765 5756 5747 5769 5779 5779 5778 5779 5779 5780 5781 5782 5783 5785 5786 5788 5788 5788 5788 5788 5787 5786 5785 5784 5782 5781 5780 5778 5777 5776 5775 5773 5772 5771
5831 5826 5814 5794 5765 5744 5755 5775 5779 5783 5786 5791 5789 5783 5774 5768 5773 5770 5773 5778 5780 5779 5780 5780 5780 5781 5781 5782 5783 5784 5785 5786 5786 5786 5785 5785 5784 5783 5782 5780 5779 5778 5777 5776 5775 5773 5772 5770 5769
5834 5828 5804 5781 5763 5753 5761 5779 5785 5791 5796 5794 5785 5783 5775 5770 5776 5774 5777 5780 5780 5780 5780 5780 5780 5780 5781 5781 5782 5783 5783 5784 5784 5784 5783 5783 5782 5781 5780 5779 5778 5777 5776 5775 5773 5772 5771 5769 5768
5832 5815 5798 5776 5767 5778 5783 5788 5793 5790 5791 5792 5785 5775 5778 5785 5783 5781 5782 5782 5780 5779 5780 5780 5779 5779 5780 5780 5780 5781 5782 5782 5783 5782 5782 5781 5781 5780 5779 5778 5777 5776 5775 5774 5772 5771 5770 5768 5767
5828 5804 5781 5770 5776 5790 5798 5801 5800 5790 5786 5785 5783 5770 5770 5785 5789 5786 5784 5782 5780 5779 5780 5780 5779 5779 5779 5779 5779 5780 5781 5781 5781 5781 5780 5780 5779 5779 5778 5776 5775 5774 5774 5773 5772 5770 5769 5768 5766
5815 5799 5772 5764 5779 5793 5801 5806 5801 5790 5784 5784 5781 5770 5769 5785 5786 5785 5785 5783 5782 5781 5780 5780 5780 5779 5779 5779 5779 5779 5780 5780 5780 5780 5780 5779 5778 5777 5776 5775 5775 5774 5773 5772 5771 5770 5769 5768 5766
5811 5793 5778 5780 5783 5789 5801 5811 5802 5792 5786 5787 5788 5771 5771 5781 5788 5788 5786 5784 5783 5782 5781 5780 5780 5779 5779 5779 5779 5779 5780 5780 5780 5780 5779 5779 5777 5776 5775 5775 5774 5773 5772 5771 5770 5769 5768 5767 5766
5828 5802 5787 5788 5786 5790 5808 5813 5810 5801 5794 5800 5796 5775 5770 5783 5791 5790 5786 5784 5782 5782 5781 5781 5780 5780 5780 5779 5779 5779 5780 5780 5780 5779 5779 5778 5777 5776 5775 5774 5773 5772 5771 5770 5770 5769 5768 5767 5766
5838 5798 5783 5791 5793 5798 5813 5809 5810 5814 5804 5801 5801 5794 5792 5795 5794 5787 5782 5780 5779 5780 5780 5781 5780 5780 5781 5780 5780 5780 5780 5780 5780 5779 5778 5777 5776 5775 5774 5774 5773 5772 5771 5770 5769 5768 5767 5767 5766
5828 5796 5803 5818 5818 5813 5816 5812 5809 5803 5794 5792 5793 5797 5799 5796 5791 5784 5779 5777 5777 5778 5780 5781 5781 5781 5781 5781 5780 5780 5780 5780 5779 5779 5778 5777 5776 5775 5774 5773 5773 5772 5771 5770 5768 5768 5767 5767 5766
5832 5817 5828 5833 5835 5829 5819 5815 5816 5799 5786 5791 5791 5792 5795 5793 5789 5785 5782 5781 5781 5782 5782 5783 5783 5783 5783 5783 5781 5780 5780 5780 5779 5778 5778 5777 5776 5775 5774 5773 5772 5772 5771 5769 5768 5767 5767 5767 5765
5837 5837 5842 5839 5841 5833 5823 5819 5812 5806 5800 5807 5806 5803 5798 5792 5789 5787 5785 5785 5785 5784 5784 5785 5785 5785 5785 5784 5783 5781 5780 5780 5780 5779 5779 5778 5776 5775 5774 5773 5773 5772 5771 5769 5768 5767 5767 5766 5765
5837 5837 5844 5845 5841 5837 5830 5820 5814 5809 5814 5814 5810 5805 5799 5795 5793 5792 5792 5790 5788 5786 5786 5787 5788 5787 5786 5785 5784 5782 5782 5782 5782 5781 5780 5779 5778 5776 5775 5774 5773 5773 5771 5770 5769 5768 5767 5766 5765
5842 5843 5843 5842 5840 5838 5827 5819 5815 5809 5817 5812 5808 5803 5802 5799 5797 5794 5792 5790 5789 5788 5788 5789 5790 5789 5788 5786 5785 5785 5784 5783 5783 5782 5781 5780 5779 5777 5776 5775 5774 5773 5772 5771 5770 5769 5768 5767 5765
5849 5835 5832 5836 5837 5833 5827 5807 5810 5817 5818 5810 5808 5806 5804 5803 5801 5797 5796 5794 5794 5792 5791 5791 5792 5791 5790 5789 5788 5787 5786 5785 5784 5783 5783 5781 5780 5779 5778 5776 5775 5774 5773 5772 5771 5770 5768 5767 5765
5833 5817 5806 5825 5833 5832 5816 5791 5812 5822 5817 5808 5809 5808 5805 5804 5804 5804 5803 5800 5799 5796 5794 5794 5795 5792 5791 5791 5790 5788 5787 5786 5784 5784 5783 5782 5781 5780 5779 5777 5775 5775 5773 5772 5770 5768 5766 5764 5763
5809 5795 5797 5815 5832 5830 5816 5799 5815 5823 5818 5810 5810 5810 5807 5804 5805 5807 5808 5806 5803 5800 5797 5795 5795 5793 5792 5792 5791 5789 5787 5786 5785 5784 5784 5783 5782 5781 5779 5778 5776 5775 5774 5772 5770 5767 5766 5763 5761
5793 5796 5800 5805 5824 5824 5812 5808 5817 5823 5820 5814 5813 5812 5809 5806 5807 5811 5811 5810 5807 5804 5802 5799 5796 5795 5794 5792 5791 5789 5788 5787 5786 5785 5784 5784 5783 5782 5780 5778 5777 5776 5773 5771 5769 5767 5766 5763 5761
5817 5810 5805 5815 5832 5820 5810 5808 5816 5823 5821 5816 5814 5812 5811 5811 5814 5815 5814 5812 5809 5806 5803 5800 5798 5796 5795 5792 5789 5786 5785 5786 5786 5786 5786 5785 5784 5782 5781 5779 5777 5776 5773 5771 5770 5767 5764 5761 5760
5820 5808 5807 5819 5833 5820 5808 5808 5817 5822 5822 5822 5819 5816 5814 5813 5814 5814 5813 5812 5810 5807 5805 5803 5800 5799 5797 5795 5793 5791 5788 5787 5787 5787 5787 5786 5785 5783 5782 5780 5778 5776 5774 5771 5769 5767 5762 5760 5760
5817 5810 5810 5811 5822 5821 5808 5795 5805 5817 5824 5825 5826 5824 5822 5819 5817 5816 5815 5813 5812 5809 5808 5807 5803 5800 5798 5797 5794 5792 5789 5787 5786 5786 5786 5787 5786 5784 5783 5781 5779 5777 5774 5771 5769 5767 5763 5758 5757
5809 5831 5827 5820 5803 5789 5797 5769 5794 5807 5814 5821 5823 5824 5824 5826 5825 5822 5819 5817 5816 5814 5813 5810 5806 5803 5800 5798 5794 5790 5786 5783 5785 5786 5787 5787 5787 5786 5784 5782 5780 5777 5775 5772 5770 5768 5765 5760 5754
5826 5842 5832 5822 5803 5788 5791 5776 5785 5803 5804 5815 5823 5828 5830 5831 5830 5827 5825 5823 5821 5819 5816 5813 5809 5805 5803 5801 5797 5792 5789 5788 5787 5787 5787 5787 5787 5786 5784 5782 5780 5777 5774 5772 5770 5767 5764 5761 5756
5844 5832 5820 5806 5790 5768 5783 5776 5777 5796 5810 5820 5827 5831 5833 5835 5834 5832 5831 5827 5823 5821 5818 5815 5810 5806 5804 5802 5799 5795 5791 5789 5787 5786 5785 5785 5785 5784 5783 5782 5780 5777 5774 5772 5769 5767 5764 5760 5757
5832 5799 5769 5763 5753 5760 5785 5780 5785 5818 5830 5832 5832 5835 5837 5838 5836 5833 5829 5826 5823 5821 5819 5816 5812 5808 5806 5802 5799 5797 5794 5792 5789 5787 5786 5784 5783 5782 5782 5782 5779 5777 5775 5772 5769 5766 5763 5760 5757
5818 5800 5766 5751 5747 5759 5780 5777 5803 5835 5842 5844 5843 5842 5841 5838 5838 5836 5834 5831 5827 5825 5821 5817 5813 5810 5808 5804 5801 5800 5798 5795 5793 5791 5789 5787 5785 5784 5783 5782 5780 5777 5775 5772 5768 5765 5762 5759 5756
5814 5800 5800 5773 5764 5755 5767 5787 5810 5834 5836 5837 5838 5837 5837 5838 5839 5837 5835 5833 5830 5827 5824 5821 5816 5811 5809 5807 5805 5802 5799 5797 5795 5793 5792 5789 5787 5785 5783 5781 5779 5776 5774 5771 5767 5763 5761 5758 5755
5829 5815 5787 5768 5748 5743 5761 5774 5784 5808 5820 5828 5830 5831 5834 5836 5838 5837 5835 5833 5832 5829 5826 5822 5819 5815 5811 5809 5806 5804 5800 5798 5796 5794 5791 5789 5787 5785 5783 5780 5777 5774 5772 5769 5765 5762 5760 5756 5753
5816 5808 5789 5769 5765 5748 5744 5765 5812 5812 5818 5822 5826 5830 5831 5832 5833 5834 5834 5834 5833 5830 5826 5821 5818 5815 5812 5810 5807 5804 5801 5799 5797 5794 5791 5789 5786 5784 5781 5779 5776 5773 5770 5767 5764 5760 5758 5754 5751
5823 5810 5791 5768 5762 5759 5752 5768 5822 5822 5825 5827 5828 5830 5831 5831 5831 5832 5832 5830 5829 5826 5824 5821 5818 5815 5813 5812 5808 5804 5801 5799 5796 5793 5791 5789 5786 5783 5780 5777 5774 5770 5767 5765 5762 5759 5756 5752 5749